Theta_e
310 312 310 309 310 310 311 312 312 312 312 312 312 312 312 312 311 311 310 310 310 312 317 320 321 320 320 319 325 337 342 342 342 344 343 341 341 340 340 339 338 338 339 335
311 309 308 309 311 311 312 313 313 312 312 311 311 311 311 316 315 313 311 310 310 312 318 319 321 322 321 320 321 329 337 342 342 343 342 341 341 340 341 340 340 339 339 337
310 308 308 310 311 312 313 312 311 311 311 311 311 311 315 314 312 312 313 313 314 317 317 318 320 322 322 321 321 329 333 339 342 342 342 341 340 340 340 340 341 341 340 340
308 307 310 311 311 310 313 311 311 312 311 311 310 310 314 312 311 310 310 312 314 315 316 319 322 323 323 322 322 324 332 337 341 342 341 340 339 338 339 339 340 340 340 340
307 308 310 311 309 310 312 312 312 313 312 311 311 311 312 311 311 310 309 309 310 312 316 319 322 324 327 329 326 322 326 336 341 341 341 339 338 338 337 337 337 338 338 339
307 307 308 308 310 310 311 313 314 314 312 314 313 313 312 311 310 309 308 308 308 309 311 311 312 314 316 319 330 331 325 331 337 341 341 339 338 336 335 335 337 337 337 338
308 308 308 307 309 311 312 313 314 313 316 313 313 314 313 310 309 308 306 308 308 308 308 309 308 308 309 310 313 322 327 326 334 338 338 339 338 338 339 338 336 336 336 336
309 311 307 306 307 306 309 312 313 313 313 312 312 314 313 309 307 308 306 307 307 308 306 306 306 307 307 306 307 309 314 326 330 335 337 337 337 337 337 339 339 338 337 337
308 309 307 306 306 306 307 309 311 313 314 316 314 313 310 309 308 307 306 306 308 306 307 306 305 304 304 304 305 304 305 310 320 325 331 335 336 336 336 338 338 339 338 338
306 309 307 306 307 306 306 307 311 314 316 316 313 312 313 311 310 308 307 305 307 307 306 306 306 305 304 303 303 304 305 304 304 306 315 319 321 329 333 335 335 335 336 337
305 307 308 306 307 305 307 308 309 311 312 314 316 313 309 310 309 310 308 306 306 307 306 305 304 305 305 305 305 304 303 304 304 304 304 304 304 306 310 319 326 330 335 336
305 307 308 306 306 304 305 306 308 313 312 312 314 314 310 308 309 307 307 307 306 306 306 305 305 304 303 303 303 302 304 303 303 304 304 304 304 304 304 303 304 306 316 323
305 309 310 308 307 306 305 306 306 308 310 312 313 314 308 307 307 307 306 306 306 306 306 305 305 305 304 304 304 303 302 302 301 303 304 304 304 304 305 304 304 304 303 304
302 306 307 309 306 305 305 305 306 306 311 310 308 308 306 306 307 306 305 305 305 305 305 305 305 305 305 305 304 304 303 302 300 300 300 301 303 303 302 303 305 305 304 304
306 306 305 305 304 303 304 305 306 307 307 308 308 307 306 306 306 305 305 305 304 305 304 304 304 305 305 305 304 303 304 303 302 301 299 299 299 301 302 303 303 302 303 304
305 307 304 302 303 303 304 306 306 306 306 307 306 307 306 305 305 304 304 304 304 304 304 304 304 304 304 304 304 303 303 301 301 302 301 299 299 299 299 300 302 304 303 301
306 306 304 308 303 304 306 307 307 307 307 307 307 308 304 305 304 304 303 304 303 304 304 304 304 303 303 302 302 301 301 301 301 301 301 301 301 301 300 299 299 299 302 303
306 305 305 309 304 308 309 307 307 307 306 306 306 305 304 304 303 303 304 304 302 302 302 302 302 301 300 301 301 300 300 301 301 301 301 300 300 299 299 299 299 299 299 300
304 305 307 309 307 308 306 305 306 305 306 306 305 304 304 303 303 305 304 302 301 301 300 300 300 300 300 300 300 300 300 300 300 300 299 299 299 299 299 299 298 298 298 299
304 305 306 307 309 309 307 305 305 305 306 306 305 304 303 303 305 306 302 301 300 299 300 300 300 300 301 300 300 299 299 299 299 298 297 297 297 298 299 298 298 298 297 297
304 306 307 308 307 307 306 305 305 305 308 305 304 303 302 304 304 303 301 300 299 299 300 300 300 300 300 298 298 298 298 298 296 296 295 295 295 295 295 296 296 295 295 295
304 305 305 306 308 307 305 305 305 306 305 303 303 302 303 304 302 301 300 299 299 299 299 299 299 299 298 298 297 297 296 295 295 294 294 295 295 294 293 293 293 293 293 294
305 306 308 307 308 306 305 305 304 305 304 303 302 302 304 303 301 300 299 299 299 299 299 298 298 299 298 297 296 296 295 295 294 295 295 295 294 293 292 291 292 292 292 293
305 305 306 307 306 306 304 304 304 303 302 302 302 303 303 301 300 299 299 298 298 298 298 298 298 298 298 297 296 295 295 294 294 295 295 295 294 293 292 291 291 291 291 291
306 305 306 305 305 304 303 303 303 302 301 302 302 303 302 299 299 299 299 298 298 297 297 297 297 296 296 296 295 295 294 294 294 293 293 294 292 292 291 291 291 291 291 291
305 306 306 306 305 305 304 303 303 302 302 301 302 302 299 298 299 299 298 297 297 296 296 295 295 295 295 294 294 294 294 293 292 292 292 291 291 291 291 291 291 290 290 290
Wind_Speed
3 8 10 10 8 5 8 12 15 14 12 14 18 21 22 25 25 29 31 29 28 29 22 20 22 22 20 23 24 25 31 35 36 38 36 34 35 33 31 29 29 29 28 30
8 11 7 5 5 9 10 13 13 13 14 15 18 18 18 25 27 34 28 26 25 25 20 19 22 23 24 21 24 25 27 32 37 37 37 36 33 32 29 30 30 32 32 33
12 7 4 7 8 12 9 10 13 15 15 18 17 10 19 22 30 35 36 15 12 12 16 19 19 20 17 22 22 25 26 28 34 36 34 33 33 31 30 30 31 33 34 32
7 4 6 7 10 10 8 11 11 14 13 12 13 10 19 19 20 22 33 31 29 18 15 15 12 14 13 14 13 20 24 26 29 31 33 35 34 34 32 31 30 28 30 32
4 5 7 8 12 7 7 14 12 11 13 8 8 3 7 15 16 19 28 34 33 31 24 17 12 14 10 11 10 12 15 23 25 29 34 31 35 29 26 28 29 30 29 33
6 1 5 7 12 3 10 15 19 10 9 5 2 6 11 8 7 11 20 24 26 29 27 23 21 20 18 17 4 6 10 13 21 23 25 32 32 36 32 29 23 25 26 28
6 7 4 10 10 3 13 14 5 2 4 3 15 10 5 8 11 13 16 17 19 23 25 27 30 31 27 27 23 16 11 4 0 16 23 23 27 27 26 27 27 28 30 30
3 6 7 7 7 10 8 8 5 5 8 6 12 4 4 6 17 13 15 16 20 21 26 29 30 32 33 38 35 31 24 11 5 4 8 22 21 23 22 20 23 26 23 24
2 3 1 3 7 10 6 7 7 5 9 4 4 3 8 10 13 17 14 19 20 21 24 27 29 38 38 40 41 41 38 35 22 13 7 4 18 21 20 17 17 18 22 22
3 2 4 2 6 3 3 7 2 1 5 5 3 7 7 11 8 8 13 17 18 17 22 25 28 29 37 41 38 35 35 36 35 33 20 17 13 4 13 21 22 24 25 26
0 2 6 4 2 4 3 4 2 3 4 4 5 5 7 8 7 8 8 9 17 17 15 23 25 26 29 36 33 36 34 31 30 29 28 27 25 23 18 11 2 7 21 27
2 2 3 3 1 1 1 3 3 3 3 4 3 4 7 7 5 7 10 8 10 15 15 17 22 24 28 31 34 31 29 31 30 25 23 21 19 20 20 18 19 15 11 4
3 3 3 6 5 7 4 2 1 5 2 3 3 3 2 5 6 7 11 15 14 12 14 17 14 18 20 23 26 29 28 26 27 26 25 22 22 20 17 17 17 15 13 12
2 3 5 4 3 3 5 4 3 2 4 2 1 2 1 4 7 10 13 15 16 16 19 20 19 18 17 17 18 21 26 28 26 24 25 24 23 21 19 17 14 13 13 12
3 4 3 5 5 6 8 7 7 8 7 4 4 2 1 3 8 11 15 15 17 17 19 20 20 18 18 18 19 20 20 24 26 27 25 24 22 22 22 20 19 17 13 13
4 2 1 4 5 6 9 10 9 6 5 3 3 5 3 5 7 11 14 15 16 17 18 19 18 18 18 19 19 20 21 22 24 22 24 23 22 22 21 20 20 22 22 19
5 3 3 2 3 6 9 17 13 9 7 5 7 7 4 6 9 12 12 13 16 16 16 17 19 19 19 19 20 21 24 22 19 19 19 19 19 19 21 20 22 22 23 25
6 7 2 2 3 4 1 4 12 9 8 7 5 3 3 7 11 12 4 12 15 16 18 18 19 21 22 21 20 20 20 20 20 18 17 19 21 21 24 23 21 21 21 22
9 8 3 3 7 9 12 11 11 10 10 10 8 4 4 7 12 8 7 11 15 18 20 19 19 19 19 19 20 21 21 20 19 19 19 19 20 22 22 26 28 26 23 22
11 10 6 4 4 4 4 6 14 6 11 12 10 5 5 7 7 7 16 16 17 17 18 20 21 20 19 19 18 18 17 18 18 20 19 20 20 19 19 21 22 22 23 25
12 6 11 9 6 8 1 11 13 6 1 12 10 5 4 6 7 11 14 15 16 18 19 19 18 18 17 15 16 16 16 15 18 20 20 19 19 20 20 21 22 23 23 26
13 10 8 9 7 9 14 16 10 5 9 10 6 4 4 5 6 9 12 14 16 17 18 17 16 15 15 15 15 15 16 18 20 21 23 23 22 21 21 22 24 25 27 28
9 9 6 10 7 3 18 9 15 8 9 7 4 4 4 4 6 8 10 12 14 15 16 15 14 14 15 16 16 17 18 18 19 20 22 24 26 26 22 25 25 27 27 28
13 20 5 8 13 9 15 20 15 11 9 8 6 7 6 4 5 7 9 11 13 13 14 15 15 15 17 17 17 18 19 20 20 21 22 22 23 27 29 31 30 28 29 28
9 15 14 12 9 9 16 20 17 15 11 9 8 8 6 4 4 6 8 10 11 12 13 15 16 18 20 20 20 19 20 21 22 24 23 23 25 27 28 29 27 29 29 28
15 12 11 7 18 17 13 22 20 20 16 13 12 10 6 4 3 4 6 8 10 13 14 16 17 19 21 22 22 21 21 20 22 26 27 29 31 32 32 34 34 31 30 31
Wind_Direction
49 70 42 22 20 339 312 308 309 313 336 316 310 301 299 301 287 285 283 274 271 271 275 278 267 261 251 244 234 221 217 215 215 215 213 211 214 212 217 214 218 220 223 225
166 59 26 341 335 338 319 323 327 320 341 314 297 297 298 27 11 345 287 275 267 264 283 286 280 262 253 247 239 225 221 217 217 217 216 216 216 221 222 222 220 221 224 230
58 59 350 343 5 349 347 1 339 323 319 288 288 292 44 21 16 353 3 304 289 310 297 288 279 274 275 246 239 230 225 220 217 215 218 219 217 221 224 223 225 226 225 229
66 59 357 2 18 352 299 355 317 313 322 325 321 291 37 15 19 16 3 9 360 336 311 294 300 286 280 285 255 238 231 225 222 217 216 217 218 217 221 225 228 228 231 227
86 23 5 16 352 336 324 321 295 288 293 314 337 293 11 24 10 8 5 11 10 5 16 16 6 9 14 353 303 271 242 227 222 221 217 219 219 223 224 232 230 235 230 238
83 133 44 351 323 6 289 303 279 242 281 307 270 309 48 5 357 16 9 0 13 14 23 29 29 28 27 11 23 12 272 232 226 223 230 224 228 225 224 226 222 231 236 230
151 55 101 10 359 165 352 340 351 288 225 31 72 72 49 344 25 23 14 6 7 16 29 35 37 36 34 37 33 43 76 168 347 218 228 235 232 235 232 230 234 235 240 227
337 160 23 13 12 335 21 14 355 307 347 332 23 44 62 9 31 23 3 9 2 22 21 33 30 26 26 38 43 42 43 69 145 153 177 208 222 234 240 239 238 237 240 256
277 143 122 39 333 359 343 6 346 282 270 286 134 151 223 37 31 26 16 0 3 11 15 21 25 34 35 38 48 50 52 60 64 59 68 146 210 218 220 216 219 231 236 242
100 224 162 46 273 75 7 6 304 319 320 326 142 83 18 1 10 356 35 18 1 355 13 21 24 21 27 31 37 44 51 51 57 59 65 57 46 78 231 234 231 231 232 230
321 271 129 224 63 354 4 28 6 299 330 314 317 71 14 9 25 17 360 23 16 20 8 20 25 26 19 17 18 26 34 40 44 46 50 55 59 58 56 68 119 230 237 237
57 301 253 47 107 189 13 352 21 315 35 347 269 68 39 20 18 10 12 24 32 18 27 34 19 24 27 19 16 20 18 20 26 28 30 32 43 48 52 45 53 45 39 35
147 209 220 176 180 205 234 261 275 178 209 272 298 85 77 14 21 12 15 11 20 22 15 20 19 22 14 10 7 5 9 12 10 8 9 9 13 15 20 25 27 34 39 36
272 244 267 329 11 320 241 243 212 225 266 185 123 104 353 7 356 7 359 356 355 360 3 6 6 6 8 3 359 1 358 358 360 358 356 353 354 355 357 356 352 357 4 5
248 245 238 284 286 258 259 263 252 224 235 275 127 271 83 350 333 343 344 347 347 354 352 355 354 355 355 355 353 351 352 348 347 348 347 345 340 336 335 336 339 328 332 335
178 253 225 294 239 250 255 251 244 233 222 168 234 229 107 302 320 337 336 347 348 348 344 344 345 345 344 342 341 339 338 339 335 338 337 335 330 331 323 322 318 318 322 319
170 192 179 265 240 284 268 235 223 210 217 249 229 49 354 327 337 335 335 350 344 344 343 339 338 338 335 333 331 329 331 333 332 333 334 333 332 332 323 322 317 313 307 308
189 195 150 287 267 245 268 183 209 226 219 220 259 261 328 324 322 309 342 345 343 342 338 334 332 328 329 330 330 330 331 333 334 337 332 331 330 328 326 326 322 313 308 303
220 190 172 228 212 282 238 220 203 208 228 226 238 211 274 318 308 79 22 348 339 333 330 330 329 328 328 329 330 330 331 332 336 335 334 332 331 327 329 326 322 323 317 314
197 228 205 179 251 245 52 151 189 209 258 226 207 222 275 312 292 23 357 343 335 333 332 331 332 332 332 331 330 332 331 330 328 331 329 328 326 322 319 317 320 316 319 315
181 202 215 212 243 274 196 152 150 187 120 145 176 216 281 278 337 328 328 330 331 331 333 334 336 337 334 336 341 337 334 333 320 321 324 324 323 321 319 317 315 317 314 312
176 183 192 221 217 251 168 157 202 138 136 148 183 232 244 279 307 315 320 325 328 331 333 338 340 339 340 338 336 334 330 327 325 323 323 324 321 318 315 313 314 314 312 311
200 203 178 192 209 199 175 185 195 180 173 187 218 226 220 257 296 313 319 325 328 331 332 335 332 329 328 334 332 328 329 326 326 321 320 317 317 319 318 316 316 314 314 314
226 204 214 190 233 208 208 203 202 195 206 208 225 212 206 259 292 306 318 326 329 329 329 328 323 318 320 325 325 323 323 326 326 323 318 317 314 307 312 320 317 312 313 313
191 193 212 231 237 203 210 213 203 206 212 211 215 205 211 239 277 305 318 325 325 324 322 319 314 310 310 315 318 319 323 322 321 321 320 313 310 313 311 312 309 310 313 311
218 202 203 224 224 217 226 218 216 213 213 218 207 199 202 202 254 301 315 320 323 320 321 318 312 307 306 312 314 316 320 320 319 319 317 316 317 318 317 318 318 317 315 312